| time (UTC) | temp C | wind direction | speed KPH | gust KPH | rain 1hr cm | rain 24hr cm | rain mn cm | humidity % | barometer mb |
| 20260503190831 | 24 | 0.0 | 0.0 | 0.00 | 0.03 | 0.00 | 54 | 1014.1 | |
| 20260503180648 | 21 | 0.0 | 0.0 | 0.00 | 0.03 | 0.00 | 61 | 1014.7 | |
| 20260503150251 | 13 | 0.0 | 0.0 | 0.00 | 0.03 | 0.00 | 83 | 1015.8 | |
| 20260503120132 | 8 | 0.0 | 0.0 | 0.00 | 0.03 | 0.00 | 94 | 1015.5 | |
| 20260503110302 | 9 | 0.0 | 0.0 | 0.00 | 0.03 | 0.00 | 93 | 1015.6 | |
| 20260503080558 | 11 | 0.0 | 0.0 | 0.00 | 0.03 | 0.00 | 88 | 1015.7 | |
| 20260503053558 | 14 | 0.0 | 0.0 | 0.00 | 0.03 | 0.03 | 72 | 1015.4 | |
| 20260503043515 | 16 | 0.0 | 0.0 | 0.00 | 0.03 | 0.03 | 67 | 1015.0 | |
| 20260503040522 | 16 | 0.0 | 0.0 | 0.00 | 0.03 | 0.03 | 66 | 1014.7 | |
| 20260503030601 | 18 | 0.0 | 0.0 | 0.00 | 0.03 | 0.03 | 62 | 1014.0 | |
| 20260503020244 | 20 | 0.0 | 0.0 | 0.00 | 0.03 | 0.03 | 60 | 1013.7 | |
| 20260503013209 | 20 | 0.0 | 0.0 | 0.00 | 0.03 | 0.03 | 60 | 1013.9 | |
| 20260503010231 | 21 | 0.0 | 0.0 | 0.00 | 0.03 | 0.03 | 59 | 1013.9 | |
| 20260503003113 | 21 | 0.0 | 0.0 | 0.00 | 0.03 | 0.03 | 59 | 1014.0 | |
| 20260502232859 | 22 | 0.0 | 0.0 | 0.00 | 0.03 | 0.03 | 61 | 1014.5 | |
| 20260502230011 | 22 | 0.0 | 0.0 | 0.00 | 0.03 | 0.03 | 59 | 1015.0 | |
| 20260502223059 | 22 | 0.0 | 0.0 | 0.00 | 0.03 | 0.03 | 61 | 1015.2 | |
| 20260502215933 | 22 | 0.0 | 0.0 | 0.00 | 0.03 | 0.03 | 60 | 1015.7 | |
| 20260502212759 | 22 | 0.0 | 0.0 | 0.00 | 0.03 | 0.03 | 60 | 1016.0 | |
| 20260502205848 | 22 | 0.0 | 0.0 | 0.00 | 0.03 | 0.03 | 61 | 1016.3 | |
| 20260502202736 | 21 | 0.0 | 0.0 | 0.00 | 0.03 | 0.03 | 64 | 1016.6 |